Hourly Weather Matasek

Today, 9 May, Sunday

Time Temperature Precipitation Wind Pressure Humidity
00:00 +4°C° 0 mm 2 mps 756 mmHg 76%
01:00 +4°C° 0 mm 2 mps 756 mmHg 80%
02:00 +3°C° 0 mm 3 mps 756 mmHg 81%
03:00 +3°C° 0 mm 3 mps 756 mmHg 81%
04:00 +3°C° 0 mm 3 mps 755 mmHg 82%
05:00 +4°C° 0 mm 4 mps 755 mmHg 78%
06:00 +6°C° 0 mm 4 mps 755 mmHg 74%
07:00 +7°C° 0 mm 5 mps 755 mmHg 70%
08:00 +7°C° 0 mm 5 mps 754 mmHg 71%
09:00 +8°C° 0 mm 5 mps 754 mmHg 71%
10:00 +8°C° 0 mm 5 mps 754 mmHg 72%
11:00 +10°C° 0 mm 5 mps 754 mmHg 67%
12:00 +13°C° 0 mm 6 mps 754 mmHg 62%
13:00 +16°C° 0 mm 6 mps 754 mmHg 57%
14:00 +17°C° 0 mm 6 mps 753 mmHg 58%
15:00 +17°C° 0 mm 6 mps 753 mmHg 59%
16:00 +19°C° 0 mm 5 mps 753 mmHg 61%
17:00 +17°C° 0 mm 5 mps 753 mmHg 68%
18:00 +15°C° 0 mm 4 mps 753 mmHg 75%
19:00 +14°C° 0 mm 3 mps 753 mmHg 82%
20:00 +13°C° 0 mm 3 mps 753 mmHg 85%
21:00 +12°C° 0 mm 3 mps 753 mmHg 88%
22:00 +11°C° 0 mm 3 mps 753 mmHg 92%
23:00 +11°C° 0 mm 3 mps 753 mmHg 92%

Tomorrow, 10 May, Monday

Time Temperature Precipitation Wind Pressure Humidity
00:00 +10°C° 0 mm 3 mps 753 mmHg 92%
01:00 +10°C° 0 mm 3 mps 753 mmHg 93%
02:00 +9°C° 0 mm 3 mps 753 mmHg 90%
03:00 +9°C° 0 mm 3 mps 753 mmHg 87%
04:00 +7°C° 0 mm 4 mps 753 mmHg 84%
05:00 +10°C° 0 mm 4 mps 753 mmHg 79%
06:00 +12°C° 0 mm 4 mps 753 mmHg 75%
07:00 +14°C° 0 mm 5 mps 753 mmHg 70%
08:00 +16°C° 0 mm 5 mps 753 mmHg 64%
09:00 +17°C° 0 mm 6 mps 753 mmHg 59%
10:00 +20°C° 0 mm 7 mps 753 mmHg 53%
11:00 +21°C° 0 mm 7 mps 752 mmHg 53%
12:00 +22°C° 0 mm 7 mps 752 mmHg 52%
13:00 +23°C° 0 mm 7 mps 752 mmHg 51%
14:00 +23°C° 0 mm 7 mps 752 mmHg 54%
15:00 +22°C° 0 mm 6 mps 752 mmHg 56%
16:00 +22°C° 0 mm 6 mps 752 mmHg 59%
17:00 +21°C° 0 mm 5 mps 752 mmHg 65%
18:00 +20°C° 0 mm 5 mps 752 mmHg 71%
19:00 +19°C° 0 mm 4 mps 752 mmHg 76%
20:00 +17°C° 0 mm 4 mps 752 mmHg 81%
21:00 +16°C° 0 mm 3 mps 752 mmHg 87%
22:00 +14°C° 0 mm 3 mps 753 mmHg 92%
23:00 +13°C° 0 mm 3 mps 753 mmHg 93%

Day after tomorrow, 11 May, Tuesday

Time Temperature Precipitation Wind Pressure Humidity
00:00 +13°C° 0 mm 3 mps 753 mmHg 93%
01:00 +13°C° 0 mm 3 mps 752 mmHg 94%
02:00 +12°C° 0 mm 3 mps 752 mmHg 94%
03:00 +12°C° 0 mm 3 mps 752 mmHg 94%
04:00 +12°C° 0 mm 3 mps 752 mmHg 94%
05:00 +13°C° 0 mm 4 mps 752 mmHg 88%
06:00 +14°C° 0 mm 5 mps 752 mmHg 83%
07:00 +15°C° 0 mm 5 mps 752 mmHg 77%
08:00 +17°C° 0 mm 6 mps 752 mmHg 72%
09:00 +20°C° 0 mm 6 mps 751 mmHg 67%
10:00 +21°C° 0 mm 7 mps 751 mmHg 62%
11:00 +22°C° 0 mm 7 mps 751 mmHg 60%
12:00 +23°C° 0 mm 7 mps 751 mmHg 58%
13:00 +24°C° 0 mm 7 mps 750 mmHg 57%
14:00 +24°C° 0 mm 7 mps 750 mmHg 59%
15:00 +24°C° 0 mm 7 mps 750 mmHg 61%
16:00 +24°C° 0 mm 7 mps 750 mmHg 62%
17:00 +23°C° 0 mm 7 mps 750 mmHg 66%
18:00 +22°C° 0 mm 7 mps 750 mmHg 69%
19:00 +20°C° 0 mm 7 mps 750 mmHg 72%
20:00 +18°C° 0 mm 7 mps 750 mmHg 73%
21:00 +17°C° 0 mm 7 mps 750 mmHg 73%
22:00 +16°C° 0 mm 6 mps 751 mmHg 73%
23:00 +15°C° 0 mm 6 mps 751 mmHg 73%

12 May, Wednesday

Time Temperature Precipitation Wind Pressure Humidity
00:00 +15°C° 0 mm 6 mps 750 mmHg 73%
01:00 +14°C° 0 mm 5 mps 750 mmHg 72%
02:00 +13°C° 0 mm 5 mps 750 mmHg 72%
03:00 +12°C° 0 mm 5 mps 750 mmHg 71%
04:00 +12°C° 0 mm 5 mps 750 mmHg 70%
05:00 +12°C° 0 mm 5 mps 750 mmHg 69%
06:00 +13°C° 0 mm 6 mps 750 mmHg 69%
07:00 +14°C° 0 mm 6 mps 750 mmHg 68%
08:00 +16°C° 0 mm 7 mps 750 mmHg 65%
09:00 +17°C° 0 mm 7 mps 750 mmHg 62%
10:00 +20°C° 0 mm 8 mps 750 mmHg 59%
11:00 +21°C° 0 mm 8 mps 750 mmHg 57%
12:00 +22°C° 0 mm 8 mps 749 mmHg 56%
13:00 +23°C° 0 mm 8 mps 749 mmHg 55%
14:00 +23°C° 0 mm 7 mps 749 mmHg 57%
15:00 +22°C° 0 mm 7 mps 749 mmHg 59%
16:00 +22°C° 0 mm 7 mps 749 mmHg 61%
17:00 +20°C° 0 mm 6 mps 749 mmHg 64%
18:00 +19°C° 0 mm 6 mps 749 mmHg 67%
19:00 +16°C° 0 mm 5 mps 749 mmHg 69%
20:00 +15°C° 0 mm 4 mps 749 mmHg 74%
21:00 +14°C° 0 mm 4 mps 749 mmHg 78%
22:00 +13°C° 0 mm 3 mps 750 mmHg 83%
23:00 +12°C° 0 mm 3 mps 749 mmHg 85%

13 May, Thursday

Time Temperature Precipitation Wind Pressure Humidity
00:00 +11°C° 0 mm 3 mps 749 mmHg 87%
01:00 +11°C° 0 mm 3 mps 749 mmHg 89%
02:00 +11°C° 0 mm 3 mps 749 mmHg 85%
03:00 +11°C° 0 mm 3 mps 749 mmHg 81%
04:00 +11°C° 0 mm 4 mps 749 mmHg 77%
05:00 +12°C° 0 mm 4 mps 749 mmHg 77%
06:00 +12°C° 0 mm 4 mps 749 mmHg 76%
07:00 +13°C° 0 mm 4 mps 749 mmHg 75%
08:00 +13°C° 0 mm 4 mps 749 mmHg 72%
09:00 +14°C° 0 mm 4 mps 749 mmHg 68%
10:00 +15°C° 0 mm 4 mps 749 mmHg 65%
11:00 +15°C° 0.1 mm 4 mps 749 mmHg 64%
12:00 +15°C° 0.1 mm 4 mps 748 mmHg 62%
13:00 +15°C° 0.1 mm 4 mps 748 mmHg 61%
14:00 +15°C° 0 mm 4 mps 748 mmHg 61%
15:00 +16°C° 0 mm 3 mps 748 mmHg 61%
16:00 +16°C° 0 mm 3 mps 748 mmHg 60%
17:00 +15°C° 0 mm 2 mps 748 mmHg 64%
18:00 +14°C° 0 mm 1 mps 748 mmHg 68%
19:00 +13°C° 0 mm 0 mps 748 mmHg 72%
20:00 +13°C° 0 mm 1 mps 747 mmHg 74%
21:00 +13°C° 0 mm 1 mps 747 mmHg 77%
22:00 +12°C° 0 mm 1 mps 747 mmHg 79%
23:00 +12°C° 0 mm 1 mps 747 mmHg 80%

14 May, Friday

Time Temperature Precipitation Wind Pressure Humidity
00:00 +12°C° 0 mm 1 mps 747 mmHg 81%
01:00 +12°C° 0 mm 1 mps 747 mmHg 82%
02:00 +12°C° 0 mm 1 mps 747 mmHg 82%
03:00 +12°C° 0 mm 1 mps 747 mmHg 82%
04:00 +12°C° 0 mm 1 mps 747 mmHg 83%
05:00 +12°C° 0 mm 1 mps 747 mmHg 81%
06:00 +12°C° 0 mm 1 mps 747 mmHg 78%
07:00 +13°C° 0 mm 1 mps 747 mmHg 76%
08:00 +14°C° 0 mm 1 mps 747 mmHg 72%
09:00 +15°C° 0 mm 2 mps 747 mmHg 67%
10:00 +16°C° 0 mm 2 mps 747 mmHg 62%
11:00 +17°C° 0 mm 2 mps 747 mmHg 58%
12:00 +18°C° 0 mm 2 mps 747 mmHg 53%
13:00 +19°C° 0 mm 2 mps 747 mmHg 48%
14:00 +19°C° 0 mm 2 mps 747 mmHg 53%
15:00 +18°C° 0 mm 2 mps 747 mmHg 57%
16:00 +17°C° 0 mm 2 mps 747 mmHg 62%
17:00 +16°C° 0.1 mm 2 mps 747 mmHg 68%
18:00 +15°C° 0.1 mm 2 mps 747 mmHg 73%
19:00 +14°C° 0.1 mm 2 mps 748 mmHg 79%
20:00 +13°C° 0 mm 2 mps 748 mmHg 83%
21:00 +12°C° 0 mm 1 mps 748 mmHg 87%
22:00 +11°C° 0 mm 1 mps 748 mmHg 91%
23:00 +11°C° 0.1 mm 1 mps 748 mmHg 91%
Show more